This is the latest recevied weather packets stored in our database for station/object K9MWD. If no packets are shown the sender has not sent any weather packets the latest 10 day(s).
| Time | Temp. | Humidity | Pressure | Rain* | Wind** | Luminosity | Snow |
|---|---|---|---|---|---|---|---|
| 1776879319 | 20.56° C | 87% | 1017.5 hPa | 0 mm | - | 240 W/m² | - |
| 1776879016 | 20.56° C | 87% | 1017.7 hPa | 0 mm | - | 278 W/m² | - |
| 1776878713 | 20.56° C | 88% | 1017.7 hPa | 0 mm | - | 256 W/m² | - |
| 1776878414 | 20° C | 88% | 1017.9 hPa | 0 mm | - | 191 W/m² | - |
| 1776878110 | 20° C | 89% | 1017.9 hPa | 0 mm | - | 156 W/m² | - |
| 1776877806 | 19.44° C | 90% | 1018 hPa | 0 mm | - | 180 W/m² | - |
| 1776877503 | 19.44° C | 90% | 1018.1 hPa | 0 mm | - | 175 W/m² | - |
| 1776877200 | 19.44° C | 91% | 1018 hPa | 0 mm | - | 176 W/m² | - |
| 1776876897 | 18.89° C | 92% | 1018.4 hPa | 0 mm | - | 178 W/m² | - |
| 1776876595 | 18.89° C | 92% | 1018.3 hPa | 0 mm | - | 184 W/m² | - |
| 1776876291 | 18.89° C | 93% | 1018.2 hPa | 0 mm | - | 200 W/m² | - |
| 1776875988 | 18.89° C | 93% | 1018.3 hPa | 0 mm | - | 155 W/m² | - |
| 1776875685 | 18.33° C | 94% | 1018.4 hPa | 0 mm | - | 179 W/m² | - |
| 1776875381 | 18.33° C | 94% | 1018.1 hPa | 0 mm | - | 173 W/m² | - |
| 1776875078 | 18.33° C | 94% | 1018.3 hPa | 0 mm | - | 172 W/m² | - |
| 1776874774 | 18.33° C | 94% | 1018.4 hPa | 0 mm | - | 142 W/m² | - |
| 1776874471 | 18.33° C | 95% | 1018.3 hPa | 0 mm | - | 170 W/m² | - |
| 1776874169 | 18.33° C | 95% | 1018.3 hPa | 0 mm | - | 175 W/m² | - |
| 1776873866 | 17.78° C | 95% | 1018.4 hPa | 0 mm | - | 168 W/m² | - |
| 1776873563 | 17.78° C | 95% | 1018.5 hPa | 0 mm | - | 214 W/m² | - |
| 1776873259 | 17.78° C | 95% | 1018.4 hPa | 0 mm | - | 146 W/m² | - |
| 1776872954 | 17.78° C | 95% | 1018.4 hPa | 0 mm | - | 182 W/m² | - |
| 1776872652 | 17.78° C | 95% | 1018.5 hPa | 0 mm | - | 197 W/m² | - |
* Rain latest hour (hover to see other rain measurements)
** Current wind speed in m/s (hover to see current wind gust speed)